Rieti Airport LIQN

Flugplatz Daten

Name: Rieti Airport

Ident: LIQN

Lat: 42,42720032

Long: 12,85169983

Platzhöhe: 1278 ft

IataCode: QRT

City: Rieti

Metar

2021/12/03 15:50
LIQN 031550Z 23005KT 180V250 CAVOK 09/05 Q1007

Taf

Gewünschte Webcam nicht vorhanden? Dann fügen Sie eine hinzu. Sie wird dann so schnell wie möglich freigeschaltet
Url: Title: